Flight Track Log - Related Links

Times and Time Zones

All times are in EDT time to prevent confusion due to time zone crossing. See the SWA4732 flight status page for this flight to view local times or setup timezone preferences in your user account.


Time Position Orientation Groundspeed Altitude Reporting Facility
EDT Latitude Longitude Course Direction KTS MPH feet Rate Location/Type
Wed 05:28:36 PM 39.8167 -104.7333 270° West 245 282 8,100  Level Denver TRACON
Wed 05:29:36 PM 39.8167 -104.8333 270° West 270 311 10,100 1,768 Climbing Denver TRACON
Wed 05:30:11 PM 39.8217 -104.8850 277° West 305 351 10,900 2,351 Climbing Denver Center
Wed 05:31:13 PM 39.8392 -105.0247 279° West 360 414 13,900 3,048 Climbing Denver Center
Wed 05:32:15 PM 39.8686 -105.1533 287° West 371 427 17,200 3,000 Climbing Denver Center
Wed 05:33:00 PM 39.8500 -105.3901 270° West  Level FlightAware Approximate
Wed 05:33:17 PM 39.8992 -105.3008 285° West 392 451 20,100  Level Denver Center
Wed 05:34:19 PM 39.8953 -105.4217 268° West 374 430 22,400 2,371 Climbing Denver Center
Wed 05:35:21 PM 39.8750 -105.5997 262° West 409 471 25,000 2,129 Climbing Denver Center
Wed 05:36:23 PM 39.8564 -105.7486 261° West 416 479 26,800 1,597 Climbing Denver Center
Wed 05:37:25 PM 39.8444 -105.9044 264° West 432 497 28,300 1,536 Climbing Denver Center
Wed 05:38:28 PM 39.8300 -106.0647 263° West 443 510 30,000 1,680 Climbing Denver Center
Wed 05:39:30 PM 39.8167 -106.2275 264° West 449 517 31,800 2,032 Climbing Denver Center
Wed 05:40:32 PM 39.8014 -106.3853 263° West 446 513 34,200 2,177 Climbing Denver Center
Wed 05:41:34 PM 39.7886 -106.5422 264° West 429 494 36,300 1,935 Climbing Denver Center
Wed 05:42:36 PM 39.7781 -106.7236 266° West 423 487 38,200 1,694 Climbing Denver Center
Wed 05:43:38 PM 39.7678 -106.8719 265° West 420 483 39,800 871 Climbing Denver Center
Wed 05:44:40 PM 39.7578 -107.0203 265° West 419 482 40,000 97 Climbing Denver Center
Wed 05:45:42 PM 39.7469 -107.1689 265° West 418 481 40,000  Level Denver Center
Wed 05:46:44 PM 39.7350 -107.3303 265° West 415 478 40,000  Level Denver Center
Wed 05:47:46 PM 39.7236 -107.4792 264° West 417 480 40,000  Level Denver Center
Wed 05:48:48 PM 39.7125 -107.6306 265° West 417 480 40,000  Level Denver Center
Wed 05:49:50 PM 39.6983 -107.8117 264° West 421 484 40,000  Level Denver Center
Wed 05:50:53 PM 39.6858 -107.9633 264° West 424 488 40,000  Level Denver Center
Wed 05:51:55 PM 39.6742 -108.1153 264° West 425 489 40,000  Level Denver Center
Wed 05:52:57 PM 39.6625 -108.2697 264° West 433 498 40,000  Level Denver Center
Wed 05:53:59 PM 39.6508 -108.4203 264° West 421 484 40,000  Level Denver Center
Wed 05:55:01 PM 39.6386 -108.5722 264° West 423 487 40,000  Level Denver Center
Wed 05:56:03 PM 39.6231 -108.7575 264° West 426 490 40,000  Level Denver Center
Wed 05:56:57 PM 39.6111 -108.8894 263° West 426 490 40,000  Level Salt Lake Center
Wed 05:58:00 PM 39.5983 -109.0353 264° West 415 478 40,000  Level Salt Lake Center
Wed 05:59:02 PM 39.5858 -109.1825 264° West 412 474 40,000  Level Salt Lake Center
Wed 06:00:04 PM 39.5725 -109.3303 263° West 413 475 40,000  Level Salt Lake Center
Wed 06:01:06 PM 39.5597 -109.4792 264° West 413 475 40,000  Level Salt Lake Center
Wed 06:02:08 PM 39.5428 -109.6558 263° West 413 475 40,000  Level Salt Lake Center
Wed 06:03:10 PM 39.5294 -109.8028 263° West 413 475 40,000  Level Salt Lake Center
Wed 06:04:12 PM 39.5161 -109.9531 263° West 418 481 40,000  Level Salt Lake Center
Wed 06:05:14 PM 39.4978 -110.0994 261° West 417 480 40,000  Level Salt Lake Center
Wed 06:06:17 PM 39.4775 -110.2481 260° West 418 481 40,000  Level Salt Lake Center
Wed 06:07:19 PM 39.4581 -110.3964 260° West 418 481 40,000  Level Salt Lake Center
Wed 06:08:21 PM 39.4336 -110.5750 260° West 419 482 40,000  Level Salt Lake Center
Wed 06:09:23 PM 39.4142 -110.7242 260° West 420 483 40,000  Level Salt Lake Center
Wed 06:10:25 PM 39.3939 -110.8744 260° West 422 486 40,000  Level Salt Lake Center
Wed 06:11:27 PM 39.3731 -111.0247 260° West 423 487 40,000  Level Salt Lake Center
Wed 06:12:29 PM 39.3519 -111.1728 260° West 423 487 40,000  Level Salt Lake Center
Wed 06:13:32 PM 39.3278 -111.3411 260° West 419 482 40,000  Level Salt Lake Center
Wed 06:14:34 PM 39.3064 -111.4883 259° West 419 482 40,000  Level Salt Lake Center
Wed 06:15:36 PM 39.2850 -111.6369 260° West 419 482 40,000  Level Salt Lake Center
Wed 06:16:38 PM 39.2622 -111.7853 259° West 421 484 40,000  Level Salt Lake Center
Wed 06:17:40 PM 39.2406 -111.9331 259° West 420 483 40,000  Level Salt Lake Center
Wed 06:18:42 PM 39.2172 -112.1017 260° West 417 480 40,000  Level Salt Lake Center
Wed 06:19:44 PM 39.1950 -112.2481 259° West 417 480 40,000  Level Salt Lake Center
Wed 06:20:46 PM 39.1733 -112.3956 259° West 418 481 40,000  Level Salt Lake Center
Wed 06:21:48 PM 39.1503 -112.5408 258° West 418 481 40,000  Level Salt Lake Center
Wed 06:22:51 PM 39.1233 -112.7178 259° West 418 481 40,000  Level Salt Lake Center
Wed 06:23:53 PM 39.1017 -112.8631 259° West 418 481 40,000  Level Salt Lake Center
Wed 06:24:55 PM 39.0781 -113.0094 258° West 418 481 40,000  Level Salt Lake Center
Wed 06:25:57 PM 39.0556 -113.1553 259° West 418 481 40,000  Level Salt Lake Center
Wed 06:26:59 PM 39.0333 -113.3008 259° West 418 481 40,000  Level Salt Lake Center
Wed 06:28:01 PM 39.0050 -113.4742 258° West 417 480 40,000  Level Salt Lake Center
Wed 06:29:03 PM 38.9811 -113.6217 258° West 418 481 40,000  Level Salt Lake Center
Wed 06:30:06 PM 38.9569 -113.7681 258° West 420 483 40,000  Level Salt Lake Center
Wed 06:31:08 PM 38.9342 -113.9153 259° West 420 483 40,000  Level Salt Lake Center
Wed 06:32:10 PM 38.9089 -114.0628 258° West 421 484 40,000  Level Salt Lake Center
Wed 06:33:12 PM 38.8853 -114.2111 258° West 425 489 40,000  Level Salt Lake Center
Wed 06:34:14 PM 38.8542 -114.3906 258° West 430 495 40,000  Level Salt Lake Center
Wed 06:35:16 PM 38.8294 -114.5397 258° West 430 495 40,000  Level Salt Lake Center
Wed 06:36:18 PM 38.8025 -114.6892 257° West 430 495 40,000  Level Salt Lake Center
Wed 06:37:20 PM 38.7778 -114.8369 258° West 429 494 40,000  Level Salt Lake Center
Wed 06:38:22 PM 38.7517 -114.9869 257° West 430 495 40,000  Level Salt Lake Center
Wed 06:39:24 PM 38.7192 -115.1669 257° West 430 495 40,000  Level Salt Lake Center
Wed 06:41:24 PM 38.6681 -115.4589 257° West 431 496 40,000  Level Oakland Center
Wed 06:42:26 PM 38.6408 -115.6086 257° West 431 496 40,000  Level Oakland Center
Wed 06:43:33 PM 38.6144 -115.7556 257° West 428 493 40,000  Level Salt Lake Center
Wed 06:44:35 PM 38.5831 -115.9331 257° West 428 493 40,000  Level Salt Lake Center
Wed 06:45:37 PM 38.5556 -116.0808 257° West 428 493 40,000  Level Salt Lake Center
Wed 06:46:39 PM 38.5292 -116.2267 257° West 427 491 40,000  Level Salt Lake Center
Wed 06:47:34 PM 38.5011 -116.3733 256° West 427 491 40,000  Level Oakland Center
Wed 06:48:36 PM 38.4731 -116.5194 256° West 425 489 40,000  Level Oakland Center
Wed 06:49:45 PM 38.4467 -116.6656 257° West 426 490 40,000  Level Salt Lake Center
Wed 06:50:48 PM 38.4128 -116.8422 256° West 426 490 40,000  Level Salt Lake Center
Wed 06:51:41 PM 38.3906 -116.9600 256° West 428 493 40,000  Level Oakland Center
Wed 06:52:43 PM 38.3622 -117.1086 256° West 431 496 40,000  Level Oakland Center
Wed 06:53:44 PM 38.3306 -117.2708 256° West 436 502 40,000  Level Oakland Center
Wed 06:54:46 PM 38.3092 -117.4375 261° West 437 503 40,000  Level Oakland Center
Wed 06:55:47 PM 38.2906 -117.5889 261° West 438 504 40,000  Level Oakland Center
Wed 06:56:49 PM 38.2717 -117.7403 261° West 437 503 40,000  Level Oakland Center
Wed 06:57:51 PM 38.2528 -117.8931 261° West 437 503 40,000  Level Oakland Center
Wed 06:58:52 PM 38.2331 -118.0458 261° West 437 503 40,000  Level Oakland Center
Wed 06:59:54 PM 38.2106 -118.2178 261° West 437 503 40,000  Level Oakland Center
Wed 07:00:55 PM 38.1903 -118.3689 260° West 437 503 40,000  Level Oakland Center
Wed 07:01:57 PM 38.1714 -118.5194 261° West 435 501 40,000 -195 Level Oakland Center
Wed 07:02:58 PM 38.1511 -118.6656 260° West 426 490 39,600 -732 Descending Oakland Center
Wed 07:04:00 PM 38.1311 -118.8156 260° West 413 475 38,500 -774 Descending Oakland Center
Wed 07:05:02 PM 38.1108 -118.9558 260° West 406 467 38,000 -585 Descending Oakland Center
Wed 07:06:03 PM 38.0931 -119.0983 261° West 406 467 37,300 -829 Descending Oakland Center
Wed 07:07:05 PM 38.0700 -119.2550 259° West 414 476 36,300 -927 Descending Oakland Center
Wed 07:08:06 PM 38.0508 -119.3969 260° West 412 474 35,400 -927 Descending Oakland Center
Wed 07:09:08 PM 38.0306 -119.5422 260° West 415 478 34,400 -927 Descending Oakland Center
Wed 07:10:09 PM 38.0092 -119.6906 260° West 422 486 33,500 -927 Descending Oakland Center
Wed 07:11:11 PM 37.9864 -119.8367 259° West 423 487 32,500 -1,016 Descending Oakland Center
Wed 07:12:13 PM 37.9675 -119.9783 260° West 411 473 31,400 -1,122 Descending Oakland Center
Wed 07:13:14 PM 37.9428 -120.1458 259° West 405 466 30,200 -683 Descending Oakland Center
Wed 07:14:16 PM 37.9211 -120.2844 259° West 402 463 30,000 -439 Descending Oakland Center
Wed 07:15:17 PM 37.9008 -120.4211 259° West 398 458 29,300 -1,805 Descending Oakland Center
Wed 07:16:19 PM 37.8808 -120.5586 260° West 398 458 26,300 -2,634 Descending Oakland Center
Wed 07:17:20 PM 37.8608 -120.6950 260° West 397 457 23,900 -2,488 Descending Oakland Center
Wed 07:18:22 PM 37.8553 -120.8247 267° West 377 434 21,200 -2,820 Descending Oakland Center
Wed 07:19:00 PM 37.8500 -120.9167 266° West 363 418 19,200 -2,694 Descending Northern Cal TRACON
Wed 07:20:00 PM 37.8500 -121.0333 270° West 349 402 16,800 -2,430 Descending Northern Cal TRACON
Wed 07:21:01 PM 37.8333 -121.1667 261° West 358 412 14,300 -2,400 Descending Northern Cal TRACON
Wed 07:22:00 PM 37.8000 -121.2833 250° West 369 425 12,000 -1,700 Descending Northern Cal TRACON
Wed 07:23:01 PM 37.7667 -121.3667 243° Southwest 308 354 10,900 -1,041 Descending Northern Cal TRACON
Wed 07:24:01 PM 37.7167 -121.4833 242° Southwest 300 345 9,900 -810 Descending Northern Cal TRACON
Wed 07:25:07 PM 37.7000 -121.5667 256° West 258 297 9,200 -905 Descending Northern Cal TRACON
Wed 07:26:07 PM 37.6667 -121.6500 243° Southwest 264 304 8,000 -1,263 Descending Northern Cal TRACON
Wed 07:27:01 PM 37.6500 -121.7333 256° West 273 314 6,800 -1,368 Descending Northern Cal TRACON
Wed 07:28:01 PM 37.6500 -121.8333 270° West 264 304 5,400 -1,200 Descending Northern Cal TRACON
Wed 07:29:01 PM 37.6333 -121.9167 256° West 247 284 4,400 -1,030 Descending Northern Cal TRACON
Wed 07:29:40 PM 37.6372 -121.9597 277° West 251 289 3,700 -1,200 Descending Oakland Center
Wed 07:30:41 PM 37.6283 -122.0539 263° West 235 270 2,400 -878 Descending Oakland Center
Wed 07:31:43 PM 37.6375 -122.1169 280° West 204 235 1,900 -581 Descending Oakland Center
Wed 07:32:45 PM 37.6617 -122.1572 307° West 166 191 1,200 -634 Descending Oakland Center
Wed 07:33:46 PM 37.6839 -122.1894 311° West 141 162 600 -590 Descending Oakland Center
Wed 07:36:00 PM 37.7167 -122.2167 270° West  Level FlightAware Approximate

Login

Don't have an account? Register now (free) for customized features, flight alerts, and more!